#timestamp,LO_Frequency,Hit,StdDev 
1700146815.0,286047003.0,N
1700146815.9,286047003.0,N
1700146835.7,286047003.3,N
1700146855.6,286047004.5,N
1700146875.4,286047005.4,N
1700146895.3,286047002.9,N
1700146915.1,286047004.9,N
1700146935.8,286047004.5,N
1700146955.7,286047006.7,N
1700146975.5,286047007.0,N
1700146995.4,286047005.2,N
1700147015.2,286047005.1,N
1700147035.1,286047002.9,N
1700147036.0,286047002.9,N
1700147055.8,286047005.8,N
1700147075.7,286047007.9,N
1700147095.5,286047006.5,N
1700147115.3,286047008.7,N
1700147135.2,286047010.5,Y
1700147155.0,286047003.7,P
1700147155.9,286047003.7,P
1700147175.8,286047004.9,P
1700147195.6,286047006.1,Y
1700147215.5,286047004.7,P
1700147235.3,286047008.1,P
1700147255.1,286047012.3,P
1700147275.9,286047010.9,Y
1700147295.7,286047006.7,P
1700147315.5,286047009.0,P
1700147335.4,286047006.6,P
1700147355.2,286047006.1,Y
1700147375.1,286046998.1,P
1700147376.0,286046998.1,N
1700147395.8,286047000.9,N
1700147415.6,286047002.0,N
1700147435.5,286047002.2,N
1700147455.3,286047001.0,N
1700147475.1,286046998.1,N
1700147495.9,286046999.0,N
1700147515.7,286046997.0,N
1700147535.6,286046995.8,N
1700147555.4,286046994.5,N
1700147575.2,286046990.4,N
1700147595.1,286046988.7,N
1700147596.0,286046988.7,N
1700147615.8,286046986.4,N
1700147635.6,286046986.5,N
1700147655.5,286046984.8,N
1700147675.3,286046982.2,N
1700147695.2,286046984.1,N
1700147715.9,286046983.7,N
1700147735.7,286046985.2,N
1700147755.6,286046984.0,N
1700147775.4,286046982.7,N
1700147795.2,286046981.3,N
1700147815.1,286046981.1,N
1700147816.0,286046981.1,N
1700147835.8,286046979.0,N
1700147855.7,286046979.1,N
1700147875.5,286046977.8,N
1700147895.3,286046975.8,N
1700147915.2,286046978.1,N
1700147935.0,286046977.8,N
1700147935.9,286046977.8,N
1700147955.7,286046978.1,N
1700147975.6,286046979.9,N
1700147995.4,286046976.2,Y
1700148015.3,286046990.2,P
1700148035.1,286046992.7,P
1700148036.0,286046992.7,N
1700148055.8,286046990.3,Y
1700148075.7,286046998.7,P
1700148095.5,286046997.1,N
1700148115.4,286046997.5,N
1700148135.2,286046998.3,N
1700148155.0,286047000.2,N
1700148155.9,286047000.2,N
1700148175.8,286047001.6,N
1700148195.6,286047005.6,N
1700148215.5,286047003.7,N
1700148235.3,286047001.3,N
1700148255.1,286047002.6,N
1700148275.9,286047002.1,N
1700148295.7,286047000.0,N
1700148315.5,286047002.2,N
1700148335.4,286047000.5,N
1700148355.2,286047001.0,N
1700148375.1,286046999.3,N
1700148376.0,286046999.3,N
1700148395.8,286046997.5,N
1700148415.6,286046997.6,N
1700148435.5,286046996.4,N
1700148455.3,286047011.9,Y
1700148475.2,286046999.1,P
1700148495.9,286046999.3,N
1700148515.7,286046998.4,P
1700148535.6,286047000.5,N
1700148555.4,286047001.6,N
1700148575.3,286047001.6,N
1700148595.1,286047004.5,Y
1700148596.0,286047004.5,P
1700148615.8,286047005.2,N
1700148635.7,286047007.0,P
1700148655.5,286047004.9,N
1700148675.3,286047006.8,N
1700148695.2,286047008.5,Y
1700148745.1,286047001.6,E
1700148755.9,286047003.8,N
1700148775.7,286047004.9,P
1700148795.6,286047009.8,P
1700148815.4,286047012.3,Y
1700148835.2,286047004.6,P
1700148855.1,286047003.1,P
1700148856.0,286047003.1,N
1700148875.8,286047004.4,Y
1700148895.6,286046999.3,P
1700148915.5,286046997.9,N
1700148935.3,286046998.6,N
1700148955.2,286046998.3,N
1700148975.9,286047001.3,N
1700148995.7,286047001.6,N
1700149015.6,286047005.6,N
1700149035.4,286047003.6,N
1700149055.2,286047004.7,N
1700149075.1,286047008.0,N
1700149076.0,286047008.0,N
1700149095.8,286047012.8,Y
1700149115.7,286047015.5,P
1700149135.5,286047014.5,N
1700149155.3,286047012.5,N
1700149175.2,286047012.8,N
1700149195.0,286047014.9,Y
1700149195.9,286047014.9,P
1700149215.8,286047004.1,N
1700149235.6,286046998.7,N
1700149255.4,286046999.1,N
1700149275.3,286046995.8,N
1700149295.1,286046992.5,N
1700149345.9,286046990.5,E
1700149355.8,286046996.2,N
1700149375.6,286047003.8,P
1700149395.5,286047002.4,N
1700149415.3,286047002.1,N
1700149435.1,286047000.8,N
1700149455.9,286047003.9,N
1700149475.7,286046999.9,N
1700149495.6,286047002.0,N
1700149515.4,286047002.1,N
1700149535.2,286046998.1,N
1700149555.1,286047000.9,N
1700149556.0,286047000.9,N
1700149575.8,286046998.9,N
1700149595.6,286046998.8,N
1700149615.5,286047001.1,N
1700149635.3,286047011.9,Y
1700149655.2,286046999.6,P
1700149675.9,286047000.5,N
1700149695.7,286047001.4,N
1700149715.6,286047002.0,Y
1700149735.4,286046999.7,P
1700149755.3,286047005.9,P
1700149775.1,286047006.2,N
1700149776.0,286047006.2,N
1700149795.8,286047010.2,Y
1700149815.7,286047006.1,P
1700149835.5,286047007.7,P
1700149855.3,286047009.5,P
1700149875.2,286047013.9,Y
1700149895.0,286047006.4,P
1700149895.9,286047006.4,P
1700149915.8,286047010.7,P
1700149935.6,286047008.0,Y
1700149955.4,286047002.6,P
1700149975.3,286046998.1,N
1700149995.1,286046997.8,N
1700150015.9,286046998.5,N
1700150035.7,286047000.5,N
1700150055.5,286047002.5,N
1700150075.4,286047001.5,N
1700150095.2,286047007.2,N
1700150115.0,286047005.2,N
1700150115.9,286047005.2,N
1700150135.8,286047006.3,N
1700150155.6,286047010.6,Y
1700150175.5,286047003.3,P
1700150195.3,286046999.8,N
1700150215.1,286047001.9,N
1700150235.9,286047005.2,Y
1700150255.7,286047006.1,P
1700150275.6,286047009.8,P
1700150295.4,286047010.6,P
1700150315.2,286047010.3,N
1700150335.1,286047009.5,N
1700150336.0,286047009.5,Y
1700150355.8,286047003.8,P
1700150405.7,286047000.9,E
